Regional Weather Roundup
Issued by NWS Wilmington, NC

Home | Current Version | Previous Version | Text Only | Print | Product List | Glossary On
Versions: 1 2 3 4 5 6 7 8 9 10 11 12 13 14 15 16 17 18 19 20 21 22 23 24 25 26 27 28 29 30 31 32 33 34 35 36 37 38 39 40 41 42 43 44 45 46 47 48 49 50
000
ASUS42 KILM 300413
RWRILM
RWRILM
REGIONAL HOURLY WEATHER ROUNDUP
NATIONAL WEATHER SERVICE WILMINGTON NC
1200 AM EDT SUN AUG 30 2015

NOTE: "FAIR" INDICATES FEW OR NO CLOUDS BELOW 12,000 FEET WITH NO
SIGNIFICANT WEATHER AND/OR OBSTRUCTIONS TO VISIBILITY.

...............WFO WILMINGTON COUNTY WARNING AREA...............

......COASTAL NC AND SC COUNTIES......

CITY           SKY/WX    TMP DP  RH WIND       PRES   REMARKS
WILMINGTON     MOCLDY    73  65  75 CALM      30.14S
N MYRTLE BEACH CLOUDY    75  69  81 N3        30.14R
MYRTLE BEACH   MOCLDY    75  68  78 CALM      30.15S

......INLAND NC AND SC COUNTIES.......

CITY           SKY/WX    TMP DP  RH WIND       PRES   REMARKS
LUMBERTON      CLOUDY    69  64  84 CALM      30.14S
ELIZABETHTOWN  MOCLDY    71  64  78 CALM      30.15S
WHITEVILLE     MOCLDY    70  66  85 CALM      30.15R
FLORENCE       CLOUDY    72  65  78 CALM      30.14S
DARLINGTON     CLOUDY    70  64  83 CALM      30.15S

....................REST OF NORTH CAROLINA......................

.........EASTERN NC.........

CITY           SKY/WX    TMP DP  RH WIND       PRES   REMARKS
CAPE HATTERAS  PTCLDY    77  73  87 NE7       30.11S
JACKSONVILLE   MOCLDY    68  61  77 CALM      30.15S
MOREHEAD CITY  MOCLDY    72  67  84 CALM      30.13S
KENANSVILLE      N/A     67  65  94 CALM      30.16S
NEW BERN       MOCLDY    70  65  84 CALM      30.15F
ELIZABETH CITY MOCLDY    72  67  84 N5        30.14S

.........CENTRAL NC.........

CITY           SKY/WX    TMP DP  RH WIND       PRES   REMARKS
RALEIGH DURHAM CLOUDY    71  62  73 CALM      30.16S
ROCKY MOUNT    MOCLDY    70  63  78 CALM      30.16R
ROANOKE RAPIDS NOT AVBL
FAYETTEVILLE   MOCLDY    72  63  73 CALM      30.14S
HOFFMAN        CLOUDY    70  67  89 N2        30.14F

.........WESTERN NC.........

CITY           SKY/WX    TMP DP  RH WIND       PRES   REMARKS
CHARLOTTE      CLOUDY    70  61  73 CALM      30.16F
GREENSBORO     CLOUDY    73  62  68 S3        30.16F
HICKORY        NOT AVBL
BOONE          NOT AVBL
ASHEVILLE      NOT AVBL

.....................REST OF SOUTH CAROLINA.....................

.........EASTERN SC.........

CITY           SKY/WX    TMP DP  RH WIND       PRES   REMARKS
CHARLESTON     MOCLDY    75  70  84 NE3       30.13R
BEAUFORT MCAS  CLOUDY    77  72  84 NE5       30.12S
HILTON HEAD    CLOUDY    81  75  83 NE3       30.12S

.........CENTRAL SC.........

CITY           SKY/WX    TMP DP  RH WIND       PRES   REMARKS
COLUMBIA       CLOUDY    77  59  53 NE3       30.13F
ORANGEBURG     CLOUDY    70  62  76 CALM      30.14S
SUMTER SHAW    CLOUDY    72  60  65 CALM      30.12F

.........WESTERN SC.........

CITY           SKY/WX    TMP DP  RH WIND       PRES   REMARKS
GREENVILLE     NOT AVBL
ROCK HILL      MOCLDY    67  62  84 CALM      30.16F
ANDERSON       CLOUDY    72  64  76 CALM      30.16S
CLEMSON        NOT AVBL
GREENWOOD      CLOUDY    71  63  75 CALM      30.16F


...................COASTAL AND OFFSHORE REPORTS..................

................LOCAL PIERS AND NC RESERVE................


STATION/POSITION TIME  SKY/WX   TEMP    WIND        PRES    VSBY
                                AIR SEA DIR/SP/G
                 (UTC)          (F)     (DEG/KT/KT) (MB)    (MI)
JOHNY MRCER PIER NOT AVBL
NC RESRV MASNBRO NOT AVBL
OCEAN CREST PIER NOT AVBL
SPRINGMAID  PIER NOT AVBL


................COASTAL AND OFFSHORE BUOYS................


STATION/POSITION TIME  SKY/WX   TEMP    WIND        PRES    VSBY
                                AIR SEA DIR/SP/G
                 (UTC)          (F)     (DEG/KT/KT) (MB)    (MI)
DIMNDSHOAL 41025 0350            79 82   20/ 14/ 16 1019.0R
WVE H/P(F/S)=  4/11 WND WVE H/P(F/S)=  3/ 6 SWL H/P/D(F/S/D)=  3/110/11

CAPE LOOKOUT     0400            76     360/  6/  6 1019.9S
ONSLOW BAY 41036 NOT AVBL
ONSLOW BAY 41064 0308            79 81   60/  8/ 14 1020.5R
ONSLOW BAY 41159 0325               81                N/A
WVE H/P(F/S)=  5/11 WND WVE H/P(F/S)=  5/10 SWL H/P/D(F/S/D)=  3/120/11

5SE WRITBC 41038 0308            81 82   70/ 10/ 14 1020.3R
MASNBO INL 41110 0319               82                N/A
WVE H/P(F/S)=  3/11 WND WVE H/P(F/S)=  3/10 SWL H/P/D(F/S/D)=  2/120/11

WILM HARBR 41108 0311               83                N/A
WVE H/P(F/S)=  3/11 WND WVE H/P(F/S)=  2/ 8 SWL H/P/D(F/S/D)=  2/150/11

27SE WRITB 41037 0300            77 82   80/ 12/ 14   N/A
FRYING PAN 41013 0350            81 81   70/ 12/ 14 1020.5R
WVE H/P(F/S)=  5/11 WND WVE H/P(F/S)=  3/ 6 SWL H/P/D(F/S/D)=  3/140/11

SUNST NRSH 41024 0308            80      60/  8/ 10 1020.1F
CAPRS NRSH 41029 0308            81      80/ 10/ 14 1020.3R
EDISTO     41004 0350            80 85  100/  8/ 12 1019.6R
WVE H/P(F/S)=  4/11 WND WVE H/P(F/S)=  2/ 4 SWL H/P/D(F/S/D)=  3/11



..........OFFSHORE BUOYS BEYOND 100 NM OFFSHORE...........
.....IN A TRIANGLE---HAT TO BERMUDA TO BAHAMAS TO HAT.....


STATION/POSITION TIME  SKY/WX   TEMP    WIND        PRES    VSBY
                                AIR SEA DIR/SP/G
                 (UTC)          (F)     (DEG/KT/KT) (MB)    (MI)
150E HAT   41001 0400            81 82  160/ 16/ 17 1019.5F
W BERMUDA  41048 0350            84 85  180/  8/  8 1021.3F
WVE H/P(F/S)=  4/11 SWL H/P/D(F/S/D)=  5/ 70/11

ATLANTIC S 41049 0350            84 86   40/ 12/ 14 1020.6F
WVE H/P(F/S)=  5/11 WND WVE H/P(F/S)=  2/ 4 SWL H/P/D(F/S/D)=  5/ 20/11

E BAHAMAS  41046 0350            84 86   80/ 14/ 16 1018.9F
WVE H/P(F/S)=  5/11 WND WVE H/P(F/S)=  3/ 6 SWL H/P/D(F/S/D)=  3/ 50/11

NE BAHAMAS 41047 0350            85 85  110/ 12/ 16 1020.0R
WVE H/P(F/S)=  6/10 WND WVE H/P(F/S)=  3/ 6 SWL H/P/D(F/S/D)=  5/120/10

120E CANVRL41010 0320            84 85  120/ 17/ 21 1018.7S

END


USA.gov is the U.S. government's official web portal to all federal, state and local government web resources and services.